Weather History for Branson, MO

Change the Weather History Date:

Saturday, May 3, 2014

  Actual Average (KHRO) Record (KHRO)
Temperature  
Mean Temperature 68 °F 63 °F  
Max Temperature 82 °F 73 °F 90 °F (1952)
Min Temperature 53 °F 52 °F 30 °F (1929)
Degree Days  
Heating Degree Days 0 4  
Month to date heating degree days 12  
Since 1 July heating degree days 3933  
Cooling Degree Days 2 2  
Month to date cooling degree days 6  
Year to date cooling degree days 43  
Growing Degree Days 18 (Base 50)    
Moisture  
Dew Point 38 °F    
Average Humidity 33    
Maximum Humidity 45    
Minimum Humidity 18    
Precipitation  
Precipitation 0.00 in 0.18 in 2.09 in (1990)
Month to date precipitation 0.51  
Year to date precipitation 13.82  
Snow  
Snow 0.00 in 0.00 in - ()
Month to date snowfall 0.0  
Since 1 July snowfall 11.5  
Snow Depth -    
Sea Level Pressure  
Sea Level Pressure 29.96 in    
Wind  
Wind Speed 5 mph (SW)    
Max Wind Speed 13 mph    
Max Gust Speed 20 mph    
Visibility 10 miles    
Events      
T = Trace of Precipitation, MM = Missing Value Source: NWS Daily Summary

Daily Weather History Graph

Daily Weather History Graph

Search for Another Location

Airport:

Trip Planner

Search our weather history database for the weather conditions in past years. The results will help you decide how hot, cold, wet, or windy it might be!

Date:

Astronomy

May. 03, 2014 Rise Set
Actual Time 6:17 AM CDT 8:02 PM CDT
Civil Twilight 5:49 AM CDT 8:30 PM CDT
Nautical Twilight 5:15 AM CDT 9:04 PM CDT
Astronomical Twilight 4:39 AM CDT 9:40 PM CDT
Moon 9:48 AM CDT (5/3) No Moon Set
Length of Visible Light 14h 41m
Length of Day
13h 45m
Waxing Crescent, 20% of the Moon is Illuminated
May 3
Waxing Crescent
May 6
First Quarter
May 14
Full
May 21
Last Quarter
May 28
New

Hourly Weather History & Observations

Time (CDT) Temp. Dew Point Humidity Pressure Visibility Wind Dir Wind Speed Gust Speed Precip Events Conditions
12:15 AM - - N/A% 29.95 in 10.0 mi SSW 3.5 mph - N/A   Clear
12:35 AM - - N/A% 29.95 in 10.0 mi SSW 3.5 mph - N/A   Clear
12:55 AM - - N/A% 29.94 in 10.0 mi SSW 3.5 mph - N/A   Clear
1:15 AM - - N/A% 29.94 in 10.0 mi South 3.5 mph - N/A   Clear
1:35 AM - - N/A% 29.93 in 10.0 mi South 3.5 mph - N/A   Clear
1:55 AM - - N/A% 29.93 in 10.0 mi SSW 4.6 mph - N/A   Clear
2:15 AM - - N/A% 29.94 in 10.0 mi SW 4.6 mph - N/A   Clear
2:35 AM - - N/A% 29.93 in 10.0 mi SSW 4.6 mph - N/A   Clear
2:55 AM - - N/A% 29.93 in 10.0 mi SSW 3.5 mph - N/A   Clear
3:15 AM - - N/A% 29.93 in 10.0 mi SSW 4.6 mph - N/A   Clear
3:35 AM - - N/A% 29.93 in 10.0 mi SSW 5.8 mph - N/A   Clear
3:55 AM - - N/A% 29.93 in 10.0 mi SW 5.8 mph - N/A   Clear
4:15 AM - - N/A% 29.94 in 10.0 mi SSW 4.6 mph - N/A   Clear
4:35 AM - - N/A% 29.94 in 10.0 mi SW 5.8 mph - N/A   Clear
4:55 AM - - N/A% 29.93 in 10.0 mi SSW 4.6 mph - N/A   Clear
5:15 AM - - N/A% 29.94 in 10.0 mi SW 6.9 mph - N/A   Clear
5:35 AM - - N/A% 29.94 in 10.0 mi SW 8.1 mph - N/A   Clear
5:55 AM - - N/A% 29.95 in 10.0 mi SW 6.9 mph - N/A   Clear
6:15 AM - - N/A% 29.95 in 10.0 mi SW 6.9 mph - N/A   Clear
6:35 AM - - N/A% 29.96 in 10.0 mi SW 5.8 mph - N/A   Clear
6:45 AM 53.6 °F 32.0 °F 44% 29.96 in 10.0 mi SW 5.8 mph - N/A   Partly Cloudy
7:45 AM 57.2 °F 33.8 °F 41% 29.97 in 10.0 mi SW 6.9 mph - N/A   Clear
8:45 AM 60.8 °F 35.6 °F 39% 29.99 in 10.0 mi WSW 8.1 mph - N/A   Clear
9:45 AM 66.2 °F 37.4 °F 35% 29.99 in 10.0 mi WSW 9.2 mph - N/A   Partly Cloudy
10:45 AM 73.4 °F 35.6 °F 25% 30.00 in 10.0 mi West 9.2 mph - N/A   Partly Cloudy
11:45 AM 77.0 °F 33.8 °F 21% 30.00 in 10.0 mi West 6.9 mph - N/A   Partly Cloudy
12:45 PM 77.0 °F 35.6 °F 22% 29.99 in 10.0 mi West 11.5 mph - N/A   Partly Cloudy
1:48 PM 78.8 °F 35.6 °F 21% 29.98 in 10.0 mi West 6.9 mph - N/A   Partly Cloudy
2:48 PM 80.6 °F 33.8 °F 18% 29.98 in 10.0 mi West 9.2 mph 18.4 mph N/A   Partly Cloudy
3:53 PM 80.6 °F 33.8 °F 18% 29.95 in 10.0 mi WSW 12.7 mph 19.6 mph N/A   Partly Cloudy
4:48 PM 82.4 °F 39.2 °F 21% 29.96 in 10.0 mi WSW 9.2 mph - N/A   Partly Cloudy
5:46 PM 80.6 °F 37.4 °F 21% 29.96 in 10.0 mi WSW 9.2 mph - N/A   Clear
6:53 PM 80.6 °F 41.0 °F 24% 29.96 in 10.0 mi WSW 5.8 mph - N/A   Clear
7:47 PM 75.2 °F 39.2 °F 27% 29.97 in 10.0 mi WSW 5.8 mph - N/A   Clear
8:46 PM 68.0 °F 41.0 °F 37% 29.98 in 10.0 mi Calm Calm - N/A   Partly Cloudy
9:15 PM 62.6 °F 41.0 °F 45% 29.99 in 10.0 mi Calm Calm - N/A   Clear
9:35 PM 62.6 °F 41.0 °F 45% 29.99 in 10.0 mi South 3.5 mph - N/A   Clear
9:55 PM 64.4 °F 41.0 °F 42% 29.99 in 10.0 mi South 6.9 mph - N/A   Clear
10:15 PM 66.2 °F 41.0 °F 40% 29.99 in 10.0 mi South 6.9 mph - N/A   Clear
10:35 PM 66.2 °F 41.0 °F 40% 29.99 in 10.0 mi South 6.9 mph - N/A   Clear
10:55 PM 66.2 °F 41.0 °F 40% 29.99 in 10.0 mi South 4.6 mph - N/A   Clear
11:15 PM 64.4 °F 41.0 °F 42% 29.98 in 10.0 mi SSW 4.6 mph - N/A   Clear
11:35 PM 66.2 °F 39.2 °F 37% 29.98 in 10.0 mi South 5.8 mph - N/A   Clear
11:55 PM 66.2 °F 41.0 °F 40% 29.98 in 10.0 mi SSW 5.8 mph - N/A   Clear